Location: Newark
(45.5000°N, 11.4167°E)
Time: 16:44:51
(UTC+00:00)

Explorer 11/Cluster Stage 4 - Pass Details

Date: 24 August 2019
Orbit: 467 x 1259 km, 28.8° (Epoch: 22 October)

Event Time Altitude Azimuth Distance (km) Brightness Sun altitude
Rises 13:01:03 0° 252° (WSW) 4,197 10.8 49.0°
Reaches altitude 10° 13:05:10 10° 235° (SW) 3,188 10.6 48.5°
Maximum altitude 13:10:01 17° 197° (SSW) 2,570 10.2 48.0°
Drops below altitude 10° 13:14:35 10° 159° (SSE) 2,952 9.9 47.4°
Sets 13:18:12 0° 141° (SE) 3,767 10.1 46.9°
